Location: Pl�tzky
(52.0521°N, 11.8020°E)
Time: 13:42:44
(UTC+00:00)

Cosmos 371 Rocket - Pass Details

Date: 22 November 2019
Orbit: 683 x 700 km, 74.0° (Epoch: 14 December)

Event Time Altitude Azimuth Distance (km) Brightness Sun altitude
Rises 17:35:06 0° 337° (NNW) 3,087 6.9 -21.3°
Reaches altitude 10° 17:37:33 10° 345° (NNW) 2,168 5.9 -21.6°
Enters shadow 17:41:10 37° 25° (NNE) 1,090 4.0 -22.2°
